RYR58MU LIME-EPWR

Flight info

Callsign RYR58MU
Flight time 1h 19m
Altitude 34000
Route OSKOR DCT NESTI DCT TAGIP DCT MALUG DCT NAVTI DCT REGLI L617 EPOPA
Aircraft B38M/M-SADE3FGILRWY/SB1

Departure

Time 2026-05-07 10:35
Airport Il Caravaggio International Airport (LIME)

Arrival

Time 2026-05-07 11:54
Airport Copernicus Wrocław Airport (EPWR)
Time Latitude Longitude Altitude Speed Heading
2026-05-07 10:09 45.66604 9.70339 790 ft 0 kts 195°
2026-05-07 10:27 45.66604 9.70340 790 ft 1 kts 195°
2026-05-07 10:28 45.66627 9.70348 790 ft 4 kts 195°
2026-05-07 10:28 45.66650 9.70357 790 ft 4 kts 191°
2026-05-07 10:28 45.66672 9.70353 790 ft 4 kts 133°
2026-05-07 10:28 45.66683 9.70322 790 ft 2 kts 105°
2026-05-07 10:29 45.66684 9.70314 790 ft 0 kts 105°
2026-05-07 10:31 45.66681 9.70332 790 ft 5 kts 105°
2026-05-07 10:31 45.66665 9.70419 790 ft 13 kts 105°
2026-05-07 10:32 45.66634 9.70587 790 ft 20 kts 105°
2026-05-07 10:32 45.66596 9.70787 790 ft 21 kts 105°
2026-05-07 10:32 45.66557 9.70998 790 ft 22 kts 105°
2026-05-07 10:32 45.66504 9.71212 790 ft 24 kts 111°
2026-05-07 10:33 45.66459 9.71445 790 ft 24 kts 105°
2026-05-07 10:33 45.66452 9.71687 790 ft 25 kts 75°
2026-05-07 10:33 45.66461 9.71922 790 ft 22 kts 104°
2026-05-07 10:33 45.66424 9.72122 790 ft 22 kts 104°
2026-05-07 10:34 45.66386 9.72333 790 ft 17 kts 105°
2026-05-07 10:34 45.66390 9.72457 790 ft 11 kts 34°
2026-05-07 10:34 45.66456 9.72426 790 ft 12 kts 305°
2026-05-07 10:34 45.66496 9.72244 790 ft 34 kts 284°
2026-05-07 10:35 45.66628 9.71536 790 ft 109 kts 285°
2026-05-07 10:35 45.66874 9.70217 840 ft 161 kts 284°
2026-05-07 10:35 45.67182 9.68655 1585 ft 167 kts 285°
2026-05-07 10:35 45.67340 9.66928 2300 ft 178 kts 258°
2026-05-07 10:36 45.66793 9.65294 2985 ft 190 kts 224°
2026-05-07 10:36 45.65710 9.64287 3974 ft 187 kts 199°
2026-05-07 10:36 45.64485 9.63592 5006 ft 190 kts 208°
2026-05-07 10:36 45.63513 9.62353 6086 ft 188 kts 229°
2026-05-07 10:37 45.62697 9.60859 6963 ft 194 kts 230°
2026-05-07 10:37 45.61851 9.59324 7877 ft 200 kts 229°
2026-05-07 10:37 45.60869 9.57823 8749 ft 214 kts 225°
2026-05-07 10:37 45.59828 9.56293 9754 ft 214 kts 225°
2026-05-07 10:38 45.58679 9.54931 10643 ft 217 kts 207°
2026-05-07 10:38 45.57210 9.54530 11557 ft 220 kts 175°
2026-05-07 10:38 45.55798 9.55354 12341 ft 233 kts 145°
2026-05-07 10:38 45.54870 9.57285 13162 ft 246 kts 110°
2026-05-07 10:39 45.54880 9.59764 13908 ft 261 kts 73°
2026-05-07 10:39 45.55895 9.61911 14614 ft 266 kts 44°
2026-05-07 10:39 45.57199 9.63829 15259 ft 273 kts 51°
2026-05-07 10:39 45.58419 9.65890 15829 ft 276 kts 51°
2026-05-07 10:40 45.59669 9.67988 16570 ft 279 kts 50°
2026-05-07 10:40 45.60935 9.70110 17235 ft 284 kts 51°
2026-05-07 10:40 45.61790 9.71540 17694 ft 286 kts 50°
2026-05-07 10:40 45.63089 9.73709 18367 ft 289 kts 50°
2026-05-07 10:41 45.64343 9.75996 18809 ft 299 kts 63°
2026-05-07 10:41 45.64952 9.78838 19088 ft 305 kts 91°
2026-05-07 10:41 45.64964 9.81942 19352 ft 321 kts 94°
2026-05-07 10:41 45.64982 9.85225 19583 ft 340 kts 94°
2026-05-07 10:42 45.64989 9.88698 19792 ft 359 kts 94°
2026-05-07 10:42 45.64986 9.92349 20033 ft 375 kts 94°
2026-05-07 10:42 45.64977 9.96135 20378 ft 386 kts 94°
2026-05-07 10:42 45.64965 9.99989 20949 ft 389 kts 94°
2026-05-07 10:43 45.64950 10.03877 21493 ft 394 kts 94°
2026-05-07 10:43 45.64950 10.07821 22048 ft 400 kts 91°
2026-05-07 10:43 45.65487 10.11762 22602 ft 411 kts 71°
2026-05-07 10:43 45.66851 10.15374 23171 ft 416 kts 55°
2026-05-07 10:44 45.68522 10.18782 23661 ft 421 kts 56°
2026-05-07 10:44 45.70216 10.22225 24164 ft 425 kts 55°
2026-05-07 10:44 45.71936 10.25692 24559 ft 431 kts 55°
2026-05-07 10:44 45.73682 10.29200 24988 ft 434 kts 55°
2026-05-07 10:45 45.75439 10.32731 25424 ft 438 kts 55°
2026-05-07 10:45 45.77211 10.36292 25859 ft 441 kts 56°
2026-05-07 10:45 45.78999 10.39891 26293 ft 445 kts 56°
2026-05-07 10:45 45.80800 10.43524 26682 ft 449 kts 56°
2026-05-07 10:46 45.82616 10.47195 27056 ft 453 kts 56°
2026-05-07 10:46 45.84444 10.50891 27491 ft 457 kts 56°
2026-05-07 10:46 45.86290 10.54629 27877 ft 461 kts 56°
2026-05-07 10:46 45.88145 10.58393 28269 ft 464 kts 56°
2026-05-07 10:47 45.90018 10.62196 28657 ft 468 kts 56°
2026-05-07 10:47 45.91897 10.66019 29054 ft 471 kts 56°
2026-05-07 10:47 45.93711 10.69952 29428 ft 473 kts 62°
2026-05-07 10:47 45.95354 10.74001 29799 ft 477 kts 62°
2026-05-07 10:48 45.97051 10.78116 30141 ft 480 kts 61°
2026-05-07 10:48 45.98769 10.82244 30442 ft 483 kts 61°
2026-05-07 10:48 46.00503 10.86401 30765 ft 486 kts 61°
2026-05-07 10:48 46.02247 10.90586 31092 ft 488 kts 61°
2026-05-07 10:49 46.03997 10.94788 31425 ft 491 kts 61°
2026-05-07 10:49 46.05756 10.99020 31734 ft 493 kts 61°
2026-05-07 10:49 46.07519 11.03267 32041 ft 496 kts 61°
2026-05-07 10:49 46.09294 11.07550 32340 ft 498 kts 61°
2026-05-07 10:50 46.11072 11.11847 32648 ft 501 kts 61°
2026-05-07 10:50 46.12857 11.16166 32949 ft 503 kts 62°
2026-05-07 10:50 46.14651 11.20517 33230 ft 506 kts 62°
2026-05-07 10:50 46.16452 11.24888 33531 ft 508 kts 62°
2026-05-07 10:51 46.18255 11.29275 33832 ft 510 kts 62°
2026-05-07 10:51 46.20066 11.33685 34134 ft 511 kts 62°
2026-05-07 10:51 46.21876 11.38101 34498 ft 510 kts 62°
2026-05-07 10:51 46.23674 11.42492 34883 ft 507 kts 61°
2026-05-07 10:52 46.25459 11.46860 35291 ft 503 kts 61°
2026-05-07 10:52 46.27232 11.51207 35678 ft 501 kts 61°
2026-05-07 10:52 46.28997 11.55541 35966 ft 501 kts 60°
2026-05-07 10:52 46.30761 11.59879 35977 ft 499 kts 61°
2026-05-07 10:53 46.34259 11.68503 35952 ft 496 kts 60°
2026-05-07 10:53 46.37750 11.77133 35961 ft 497 kts 61°
2026-05-07 10:54 46.41234 11.85775 35950 ft 496 kts 61°
2026-05-07 10:54 46.44709 11.94420 35978 ft 497 kts 61°
2026-05-07 10:55 46.48176 12.03073 35991 ft 496 kts 61°
2026-05-07 10:55 46.51632 12.11728 35975 ft 495 kts 61°
2026-05-07 10:56 46.55080 12.20390 35995 ft 496 kts 61°
2026-05-07 10:56 46.58520 12.29058 36012 ft 495 kts 61°
2026-05-07 10:57 46.61954 12.37736 36042 ft 496 kts 61°
2026-05-07 10:57 46.65378 12.46413 36000 ft 494 kts 61°
2026-05-07 10:58 46.68805 12.55124 35932 ft 495 kts 61°
2026-05-07 10:58 46.72769 12.63245 35988 ft 494 kts 47°
2026-05-07 10:59 46.77332 12.70764 35933 ft 494 kts 48°
2026-05-07 10:59 46.81895 12.78277 35964 ft 495 kts 47°
2026-05-07 11:00 46.86459 12.85807 35948 ft 494 kts 47°
2026-05-07 11:00 46.91011 12.93339 35977 ft 495 kts 47°
2026-05-07 11:01 46.95555 13.00878 35945 ft 493 kts 48°
2026-05-07 11:01 47.00090 13.08423 35966 ft 493 kts 48°
2026-05-07 11:02 47.04622 13.15984 35951 ft 494 kts 48°
2026-05-07 11:02 47.09142 13.23547 35954 ft 494 kts 48°
2026-05-07 11:03 47.13677 13.31154 35975 ft 496 kts 48°
2026-05-07 11:03 47.18200 13.38765 35945 ft 494 kts 48°
2026-05-07 11:04 47.22721 13.46390 35938 ft 495 kts 48°
2026-05-07 11:04 47.27206 13.53982 35992 ft 496 kts 48°
2026-05-07 11:05 47.31728 13.61655 35981 ft 496 kts 49°
2026-05-07 11:05 47.36245 13.69340 35964 ft 495 kts 48°
2026-05-07 11:06 47.40755 13.77036 35971 ft 495 kts 49°
2026-05-07 11:06 47.45252 13.84733 35982 ft 495 kts 49°
2026-05-07 11:07 47.49742 13.92438 35979 ft 494 kts 49°
2026-05-07 11:07 47.54215 14.00139 35999 ft 494 kts 49°
2026-05-07 11:08 47.58683 14.07850 35972 ft 493 kts 49°
2026-05-07 11:08 47.63137 14.15561 35991 ft 492 kts 49°
2026-05-07 11:09 47.67576 14.23267 35998 ft 491 kts 49°
2026-05-07 11:09 47.71997 14.30962 35995 ft 490 kts 49°
2026-05-07 11:10 47.76411 14.38671 35991 ft 489 kts 49°
2026-05-07 11:10 47.80807 14.46366 35991 ft 487 kts 49°
2026-05-07 11:11 47.85186 14.54056 35984 ft 486 kts 49°
2026-05-07 11:11 47.89551 14.61743 36001 ft 486 kts 49°
2026-05-07 11:12 47.93898 14.69421 35986 ft 484 kts 50°
2026-05-07 11:12 47.98239 14.77109 35990 ft 484 kts 50°
2026-05-07 11:13 48.02577 14.84815 35993 ft 484 kts 50°
2026-05-07 11:13 48.06897 14.92509 35994 ft 483 kts 50°
2026-05-07 11:14 48.11214 15.00222 35990 ft 483 kts 50°
2026-05-07 11:14 48.15517 15.07931 35989 ft 483 kts 50°
2026-05-07 11:15 48.19818 15.15660 35991 ft 483 kts 50°
2026-05-07 11:15 48.24112 15.23398 35985 ft 482 kts 50°
2026-05-07 11:16 48.28369 15.31088 35983 ft 482 kts 50°
2026-05-07 11:16 48.32646 15.38841 35972 ft 482 kts 51°
2026-05-07 11:17 48.36922 15.46613 35983 ft 482 kts 51°
2026-05-07 11:17 48.41187 15.54387 35975 ft 482 kts 51°
2026-05-07 11:18 48.45447 15.62177 35968 ft 482 kts 51°
2026-05-07 11:18 48.49704 15.69981 35967 ft 482 kts 51°
2026-05-07 11:19 48.53958 15.77803 35965 ft 482 kts 51°
2026-05-07 11:19 48.58203 15.85630 35962 ft 482 kts 51°
2026-05-07 11:20 48.62448 15.93477 35962 ft 482 kts 51°
2026-05-07 11:20 48.66688 16.01336 35956 ft 482 kts 51°
2026-05-07 11:21 48.70919 16.09202 35956 ft 482 kts 52°
2026-05-07 11:21 48.75147 16.17084 35957 ft 482 kts 52°
2026-05-07 11:22 48.79797 16.24371 35964 ft 482 kts 42°
2026-05-07 11:22 48.84770 16.31221 35957 ft 483 kts 42°
2026-05-07 11:23 48.89744 16.38075 35961 ft 483 kts 42°
2026-05-07 11:23 48.94717 16.44943 35963 ft 483 kts 42°
2026-05-07 11:24 48.99678 16.51816 35964 ft 482 kts 42°
2026-05-07 11:24 49.04630 16.58694 35967 ft 482 kts 42°
2026-05-07 11:25 49.09585 16.65597 35966 ft 482 kts 42°
2026-05-07 11:25 49.13699 16.71342 35967 ft 482 kts 42°
2026-05-07 11:26 49.18639 16.78260 35970 ft 482 kts 43°
2026-05-07 11:26 49.23578 16.85196 35966 ft 482 kts 43°
2026-05-07 11:27 49.28514 16.92147 35963 ft 482 kts 43°
2026-05-07 11:27 49.33447 16.99113 35959 ft 482 kts 43°
2026-05-07 11:28 49.35903 17.02589 35840 ft 478 kts 43°
2026-05-07 11:28 49.38352 17.06060 35015 ft 482 kts 43°
2026-05-07 11:28 49.40829 17.09577 34160 ft 488 kts 43°
2026-05-07 11:28 49.43320 17.13117 33584 ft 485 kts 43°
2026-05-07 11:29 49.45778 17.16615 33172 ft 478 kts 43°
2026-05-07 11:29 49.48202 17.20071 32720 ft 473 kts 43°
2026-05-07 11:29 49.50602 17.23497 32196 ft 469 kts 43°
2026-05-07 11:29 49.52986 17.26904 31681 ft 466 kts 43°
2026-05-07 11:30 49.55354 17.30294 31202 ft 463 kts 44°
2026-05-07 11:30 49.57698 17.33654 30723 ft 460 kts 44°
2026-05-07 11:30 49.60034 17.37008 30238 ft 457 kts 44°
2026-05-07 11:30 49.62355 17.40343 29713 ft 455 kts 44°
2026-05-07 11:31 49.64654 17.43652 29198 ft 452 kts 44°
2026-05-07 11:31 49.66946 17.46955 28725 ft 448 kts 44°
2026-05-07 11:31 49.69182 17.50181 28266 ft 444 kts 44°
2026-05-07 11:31 49.71428 17.53427 27797 ft 441 kts 44°
2026-05-07 11:32 49.75874 17.59865 26867 ft 435 kts 44°
2026-05-07 11:32 49.78080 17.63065 26415 ft 433 kts 44°
2026-05-07 11:32 49.80270 17.66247 25977 ft 431 kts 44°
2026-05-07 11:33 49.82447 17.69414 25518 ft 429 kts 44°
2026-05-07 11:33 49.84615 17.72571 25073 ft 427 kts 44°
2026-05-07 11:33 49.86773 17.75718 24630 ft 425 kts 44°
2026-05-07 11:33 49.88924 17.78859 24189 ft 424 kts 44°
2026-05-07 11:34 49.91065 17.81987 23744 ft 423 kts 44°
2026-05-07 11:34 49.93210 17.85126 23265 ft 423 kts 44°
2026-05-07 11:34 49.95343 17.88249 22821 ft 421 kts 45°
2026-05-07 11:34 49.97466 17.91363 22349 ft 419 kts 45°
2026-05-07 11:35 49.99586 17.94425 21885 ft 417 kts 40°
2026-05-07 11:35 50.02070 17.96723 21442 ft 414 kts 19°
2026-05-07 11:35 50.04855 17.97546 21098 ft 403 kts 356°
2026-05-07 11:35 50.07561 17.96899 20730 ft 390 kts 337°
2026-05-07 11:36 50.10092 17.95447 20344 ft 385 kts 335°
2026-05-07 11:36 50.12601 17.94022 19940 ft 383 kts 335°
2026-05-07 11:36 50.15101 17.92586 19542 ft 381 kts 335°
2026-05-07 11:36 50.17577 17.91156 19148 ft 379 kts 335°
2026-05-07 11:37 50.20041 17.89730 18756 ft 377 kts 335°
2026-05-07 11:37 50.22494 17.88307 18369 ft 375 kts 335°
2026-05-07 11:37 50.24929 17.86893 17943 ft 373 kts 335°
2026-05-07 11:37 50.27358 17.85480 17527 ft 371 kts 336°
2026-05-07 11:38 50.29761 17.84081 17135 ft 367 kts 336°
2026-05-07 11:38 50.32148 17.82691 16757 ft 364 kts 336°
2026-05-07 11:38 50.34512 17.81312 16373 ft 361 kts 336°
2026-05-07 11:38 50.36848 17.79912 15968 ft 357 kts 332°
2026-05-07 11:39 50.38980 17.77992 15579 ft 352 kts 325°
2026-05-07 11:39 50.41084 17.76053 15226 ft 349 kts 326°
2026-05-07 11:39 50.43179 17.74163 14872 ft 346 kts 326°
2026-05-07 11:39 50.45271 17.72298 14512 ft 344 kts 327°
2026-05-07 11:40 50.47350 17.70456 14154 ft 342 kts 327°
2026-05-07 11:40 50.49413 17.68634 13792 ft 340 kts 327°
2026-05-07 11:40 50.51445 17.66841 13403 ft 338 kts 327°
2026-05-07 11:40 50.53489 17.65036 13023 ft 335 kts 327°
2026-05-07 11:41 50.55514 17.63247 12664 ft 332 kts 327°
2026-05-07 11:41 50.57546 17.61451 12310 ft 329 kts 327°
2026-05-07 11:41 50.59506 17.59715 11966 ft 326 kts 327°
2026-05-07 11:41 50.61476 17.57970 11623 ft 323 kts 327°
2026-05-07 11:42 50.63424 17.56242 11276 ft 321 kts 326°
2026-05-07 11:42 50.65360 17.54524 10970 ft 317 kts 326°
2026-05-07 11:42 50.67269 17.52808 10645 ft 314 kts 326°
2026-05-07 11:42 50.69159 17.51108 10360 ft 310 kts 326°
2026-05-07 11:43 50.71022 17.49431 10069 ft 307 kts 326°
2026-05-07 11:43 50.72866 17.47769 9764 ft 304 kts 326°
2026-05-07 11:43 50.74696 17.46120 9433 ft 301 kts 326°
2026-05-07 11:43 50.76504 17.44489 9118 ft 297 kts 326°
2026-05-07 11:44 50.78265 17.42898 8834 ft 287 kts 326°
2026-05-07 11:44 50.79970 17.41358 8566 ft 277 kts 326°
2026-05-07 11:44 50.81614 17.39870 8299 ft 268 kts 326°
2026-05-07 11:44 50.83207 17.38428 8042 ft 260 kts 326°
2026-05-07 11:45 50.84877 17.37383 7724 ft 262 kts 350°
2026-05-07 11:45 50.86672 17.37759 7423 ft 263 kts 21°
2026-05-07 11:45 50.88286 17.39042 7179 ft 256 kts 25°
2026-05-07 11:45 50.89863 17.40287 6949 ft 252 kts 24°
2026-05-07 11:46 50.91513 17.41063 6650 ft 245 kts 357°
2026-05-07 11:46 50.93124 17.40507 6393 ft 233 kts 327°
2026-05-07 11:46 50.94315 17.38912 6170 ft 220 kts 302°
2026-05-07 11:46 50.95133 17.36890 6015 ft 215 kts 297°
2026-05-07 11:47 50.95881 17.34865 5798 ft 210 kts 295°
2026-05-07 11:47 50.96577 17.32845 5566 ft 207 kts 294°
2026-05-07 11:47 50.97234 17.30844 5347 ft 203 kts 293°
2026-05-07 11:47 50.97865 17.28870 5135 ft 198 kts 292°
2026-05-07 11:48 50.98471 17.26938 4940 ft 192 kts 292°
2026-05-07 11:48 50.99056 17.25062 4747 ft 187 kts 292°
2026-05-07 11:48 50.99624 17.23231 4555 ft 182 kts 292°
2026-05-07 11:48 51.00174 17.21449 4370 ft 177 kts 292°
2026-05-07 11:49 51.00713 17.19697 4197 ft 177 kts 292°
2026-05-07 11:49 51.01249 17.17962 4029 ft 172 kts 292°
2026-05-07 11:49 51.01768 17.16276 3832 ft 168 kts 292°
2026-05-07 11:49 51.02277 17.14618 3659 ft 166 kts 292°
2026-05-07 11:50 51.02782 17.12974 3485 ft 165 kts 292°
2026-05-07 11:50 51.03286 17.11334 3316 ft 165 kts 292°
2026-05-07 11:50 51.03787 17.09701 3126 ft 165 kts 293°
2026-05-07 11:50 51.04289 17.08067 2932 ft 164 kts 292°
2026-05-07 11:51 51.04788 17.06436 2734 ft 164 kts 293°
2026-05-07 11:51 51.05289 17.04809 2534 ft 163 kts 292°
2026-05-07 11:51 51.05769 17.03243 2313 ft 151 kts 295°
2026-05-07 11:51 51.06220 17.01774 2153 ft 145 kts 295°
2026-05-07 11:52 51.06659 17.00339 1932 ft 144 kts 297°
2026-05-07 11:52 51.07098 16.98915 1741 ft 143 kts 298°
2026-05-07 11:52 51.07533 16.97492 1524 ft 143 kts 299°
2026-05-07 11:52 51.07969 16.96074 1323 ft 142 kts 298°
2026-05-07 11:53 51.08401 16.94664 1125 ft 141 kts 298°
2026-05-07 11:53 51.08826 16.93277 910 ft 139 kts 298°
2026-05-07 11:53 51.09240 16.91925 743 ft 137 kts 297°
2026-05-07 11:53 51.09659 16.90564 569 ft 136 kts 298°
2026-05-07 11:54 51.10070 16.89215 411 ft 132 kts 299°
2026-05-07 11:54 51.10403 16.88138 406 ft 74 kts 295°
2026-05-07 11:54 51.10562 16.87621 403 ft 43 kts 296°
2026-05-07 11:54 51.10645 16.87349 404 ft 18 kts 296°
2026-05-07 11:55 51.10715 16.87246 406 ft 13 kts
2026-05-07 11:55 51.10798 16.87306 406 ft 14 kts 27°
2026-05-07 11:55 51.10881 16.87370 405 ft 13 kts 25°
2026-05-07 11:55 51.10943 16.87440 405 ft 10 kts 72°
2026-05-07 11:56 51.10923 16.87555 403 ft 13 kts 116°
2026-05-07 11:56 51.10883 16.87684 406 ft 15 kts 116°
2026-05-07 11:56 51.10842 16.87820 406 ft 8 kts 116°
2026-05-07 11:56 51.10829 16.87889 406 ft 5 kts 67°
2026-05-07 11:57 51.10856 16.87915 406 ft 5 kts 24°
2026-05-07 11:57 51.10882 16.87935 406 ft 2 kts 26°
2026-05-07 11:57 51.10886 16.87938 406 ft 0 kts 26°